YZ-1 R/B (43625 NORAD) Tracking and Keplerian Element Data

This shows tracking and keplerian element data for the satellite.

Feedback or suggestion? Click here.




ElementValue
Catalog43625
NameYZ-1 R/B
Epoch Orbit49
Epoch Day290.35485568
Epoch Year2018
RAAN156.4143
Inclination54.7943
Eccentricity0.0090478
Argument of Perigee3.6286
Mean Anonmoly356.5882
Mean Motion1.77461608
Decay Rate1.8E-07
L11 43625U 18072D 18290.35485568 .00000018 00000-0 00000+0 0 9990
L22 43625 54.7943 156.4143 0090478 3.6286 356.5882 1.77461608 491

Live tracking and technical data element details for YZ-1 R/B (NORAD 43625). YZ-1 R/B can be tracked NOW for your location showing map with azimuth and elevation plus other details from your city location.

Track the satellite on the map from your city or location and see movement details for azimuth, elevation, latitude, longitude, range, height, and movement on the map or in text.







IsCatalogInMostPopularTable: catalog: 43625, numindb: 28
Update: records affected: 1



GetName: 43625 YZ-1 R/B

Hit Count: updated at: Thu, 15 Nov 2018 04:24:15 GMT